Time,TemperatureF,DewpointF,PressureIn,WindDirection,WindDirectionDegrees,WindSpeedMPH,WindSpeedGustMPH,Humidity,HourlyPrecipIn,Conditions,Clouds,dailyrainin,SoftwareType,DateUTC
2013-03-06 00:00:00,54.0,43.0,30.16,NNW,340,13.0,15.0,68,-99.99,,,-99.99,,2013-03-06 06:00:00,
2013-03-06 00:21:00,54.0,43.0,30.16,NNW,340,13.0,15.0,68,-99.99,,,-99.99,,2013-03-06 06:21:00,
2013-03-06 00:31:00,54.0,43.0,30.16,NNW,340,13.0,15.0,68,-99.99,,,-99.99,,2013-03-06 06:31:00,
2013-03-06 00:41:00,54.0,43.0,30.16,NNW,340,13.0,15.0,68,-99.99,,,-99.99,,2013-03-06 06:41:00,
2013-03-06 00:52:00,54.0,43.0,30.16,NNW,340,13.0,15.0,68,-99.99,,,-99.99,,2013-03-06 06:52:00,
2013-03-06 01:00:00,52.0,41.0,30.16,NW,320,11.0,13.0,66,-99.99,,,-99.99,,2013-03-06 07:00:00,
2013-03-06 01:21:00,52.0,41.0,30.16,NW,320,11.0,13.0,66,-99.99,,,-99.99,,2013-03-06 07:21:00,
2013-03-06 01:31:00,52.0,41.0,30.16,NW,320,11.0,13.0,66,-99.99,,,-99.99,,2013-03-06 07:31:00,
2013-03-06 01:41:00,52.0,41.0,30.16,NW,320,11.0,13.0,66,-99.99,,,-99.99,,2013-03-06 07:41:00,
2013-03-06 01:52:00,52.0,41.0,30.16,NW,320,11.0,13.0,66,-99.99,,,-99.99,,2013-03-06 07:52:00,
2013-03-06 02:00:00,52.0,41.0,30.16,NW,320,18.0,21.0,66,-99.99,,,-99.99,,2013-03-06 08:00:00,
2013-03-06 02:21:00,52.0,41.0,30.16,NW,320,18.0,21.0,66,-99.99,,,-99.99,,2013-03-06 08:21:00,
2013-03-06 02:31:00,52.0,41.0,30.16,NW,320,18.0,21.0,66,-99.99,,,-99.99,,2013-03-06 08:31:00,
2013-03-06 02:41:00,52.0,41.0,30.16,NW,320,18.0,21.0,66,-99.99,,,-99.99,,2013-03-06 08:41:00,
2013-03-06 02:52:00,52.0,41.0,30.16,NW,320,18.0,21.0,66,-99.99,,,-99.99,,2013-03-06 08:52:00,
2013-03-06 03:00:00,50.0,36.0,30.17,NNW,330,22.0,25.0,58,-99.99,,,-99.99,,2013-03-06 09:00:00,
2013-03-06 03:21:00,50.0,36.0,30.17,NNW,330,22.0,25.0,58,-99.99,,,-99.99,,2013-03-06 09:21:00,
2013-03-06 03:31:00,50.0,36.0,30.17,NNW,330,22.0,25.0,58,-99.99,,,-99.99,,2013-03-06 09:31:00,
2013-03-06 03:41:00,50.0,36.0,30.17,NNW,330,22.0,25.0,58,-99.99,,,-99.99,,2013-03-06 09:41:00,
2013-03-06 03:51:00,50.0,36.0,30.17,NNW,330,22.0,25.0,58,-99.99,,,-99.99,,2013-03-06 09:51:00,
2013-03-06 04:00:00,48.0,31.0,30.19,NW,320,20.0,22.0,52,-99.99,,,-99.99,,2013-03-06 10:00:00,
2013-03-06 04:31:00,48.0,31.0,30.19,NW,320,20.0,22.0,52,-99.99,,,-99.99,,2013-03-06 10:31:00,
2013-03-06 04:41:00,48.0,31.0,30.19,NW,320,20.0,22.0,52,-99.99,,,-99.99,,2013-03-06 10:41:00,
2013-03-06 04:51:00,48.0,31.0,30.19,NW,320,20.0,22.0,52,-99.99,,,-99.99,,2013-03-06 10:51:00,
2013-03-06 05:00:00,47.0,30.0,30.22,NNW,330,22.0,25.0,52,-99.99,,,-99.99,,2013-03-06 11:00:00,
2013-03-06 05:22:00,47.0,30.0,30.22,NNW,330,22.0,25.0,52,-99.99,,,-99.99,,2013-03-06 11:22:00,
2013-03-06 05:31:00,47.0,30.0,30.22,NNW,330,22.0,25.0,52,-99.99,,,-99.99,,2013-03-06 11:31:00,
2013-03-06 05:42:00,47.0,30.0,30.22,NNW,330,22.0,25.0,52,-99.99,,,-99.99,,2013-03-06 11:42:00,
2013-03-06 05:52:00,47.0,30.0,30.22,NNW,330,22.0,25.0,52,-99.99,,,-99.99,,2013-03-06 11:52:00,
2013-03-06 06:00:00,46.0,29.0,30.24,NNW,330,21.0,24.0,52,-99.99,,,-99.99,,2013-03-06 12:00:00,
2013-03-06 06:21:00,46.0,29.0,30.24,NNW,330,21.0,24.0,52,-99.99,,,-99.99,,2013-03-06 12:21:00,
2013-03-06 06:32:00,46.0,29.0,30.24,NNW,330,21.0,24.0,52,-99.99,,,-99.99,,2013-03-06 12:32:00,
2013-03-06 06:42:00,46.0,29.0,30.24,NNW,330,21.0,24.0,52,-99.99,,,-99.99,,2013-03-06 12:42:00,
2013-03-06 06:52:00,46.0,29.0,30.24,NNW,330,21.0,24.0,52,-99.99,,,-99.99,,2013-03-06 12:52:00,
2013-03-06 07:00:00,45.0,29.0,30.27,NNW,330,18.0,21.0,52,-99.99,,,-99.99,,2013-03-06 13:00:00,
2013-03-06 07:21:00,45.0,29.0,30.27,NNW,330,18.0,21.0,52,-99.99,,,-99.99,,2013-03-06 13:21:00,
2013-03-06 07:31:00,45.0,29.0,30.27,NNW,330,18.0,21.0,52,-99.99,,,-99.99,,2013-03-06 13:31:00,
2013-03-06 07:41:00,45.0,29.0,30.27,NNW,330,18.0,21.0,52,-99.99,,,-99.99,,2013-03-06 13:41:00,
2013-03-06 07:51:00,45.0,29.0,30.27,NNW,330,18.0,21.0,52,-99.99,,,-99.99,,2013-03-06 13:51:00,
2013-03-06 08:00:00,44.0,29.0,30.28,NNW,340,20.0,23.0,53,-99.99,,,-99.99,,2013-03-06 14:00:00,
2013-03-06 08:21:00,44.0,29.0,30.28,NNW,340,20.0,23.0,53,-99.99,,,-99.99,,2013-03-06 14:21:00,
2013-03-06 08:31:00,44.0,29.0,30.28,NNW,340,20.0,23.0,53,-99.99,,,-99.99,,2013-03-06 14:31:00,
2013-03-06 08:41:00,44.0,29.0,30.28,NNW,340,20.0,23.0,53,-99.99,,,-99.99,,2013-03-06 14:41:00,
2013-03-06 08:52:00,44.0,29.0,30.28,NNW,340,20.0,23.0,53,-99.99,,,-99.99,,2013-03-06 14:52:00,
2013-03-06 09:00:00,45.0,27.0,30.28,North,350,16.0,18.0,48,-99.99,,,-99.99,,2013-03-06 15:00:00,
2013-03-06 09:21:00,45.0,27.0,30.28,North,350,16.0,18.0,48,-99.99,,,-99.99,,2013-03-06 15:21:00,
2013-03-06 09:32:00,45.0,27.0,30.28,North,350,16.0,18.0,48,-99.99,,,-99.99,,2013-03-06 15:32:00,
2013-03-06 09:41:00,45.0,27.0,30.28,North,350,16.0,18.0,48,-99.99,,,-99.99,,2013-03-06 15:41:00,
2013-03-06 09:51:00,45.0,27.0,30.28,North,350,16.0,18.0,48,-99.99,,,-99.99,,2013-03-06 15:51:00,
2013-03-06 10:00:00,47.0,27.0,30.28,NNW,330,10.0,11.0,45,-99.99,,,-99.99,,2013-03-06 16:00:00,
2013-03-06 10:21:00,47.0,27.0,30.28,NNW,330,10.0,11.0,45,-99.99,,,-99.99,,2013-03-06 16:21:00,
2013-03-06 10:32:00,47.0,27.0,30.28,NNW,330,10.0,11.0,45,-99.99,,,-99.99,,2013-03-06 16:32:00,
2013-03-06 10:41:00,47.0,27.0,30.28,NNW,330,10.0,11.0,45,-99.99,,,-99.99,,2013-03-06 16:41:00,
2013-03-06 10:51:00,47.0,27.0,30.28,NNW,330,10.0,11.0,45,-99.99,,,-99.99,,2013-03-06 16:51:00,
2013-03-06 11:00:00,49.0,27.0,30.26,NW,320,14.0,15.0,41,-99.99,,,-99.99,,2013-03-06 17:00:00,
2013-03-06 11:21:00,49.0,27.0,30.26,NW,320,14.0,15.0,41,-99.99,,,-99.99,,2013-03-06 17:21:00,
2013-03-06 11:31:00,49.0,27.0,30.26,NW,320,14.0,15.0,41,-99.99,,,-99.99,,2013-03-06 17:31:00,
2013-03-06 11:41:00,49.0,27.0,30.26,NW,320,14.0,15.0,41,-99.99,,,-99.99,,2013-03-06 17:41:00,
2013-03-06 11:52:00,49.0,27.0,30.26,NW,320,14.0,15.0,41,-99.99,,,-99.99,,2013-03-06 17:52:00,
2013-03-06 12:00:00,51.0,26.0,30.24,NW,320,9.0,10.0,36,-99.99,,,-99.99,,2013-03-06 18:00:00,
2013-03-06 12:28:00,51.0,26.0,30.24,NW,320,9.0,10.0,36,-99.99,,,-99.99,,2013-03-06 18:28:00,
2013-03-06 12:41:00,51.0,26.0,30.24,NW,320,9.0,10.0,36,-99.99,,,-99.99,,2013-03-06 18:41:00,
2013-03-06 12:52:00,51.0,26.0,30.24,NW,320,9.0,10.0,36,-99.99,,,-99.99,,2013-03-06 18:52:00,
2013-03-06 13:00:00,53.0,27.0,30.22,WNW,300,14.0,16.0,36,-99.99,,,-99.99,,2013-03-06 19:00:00,
2013-03-06 13:21:00,53.0,27.0,30.22,WNW,300,14.0,16.0,36,-99.99,,,-99.99,,2013-03-06 19:21:00,
2013-03-06 13:31:00,53.0,27.0,30.22,WNW,300,14.0,16.0,36,-99.99,,,-99.99,,2013-03-06 19:31:00,
2013-03-06 13:42:00,53.0,27.0,30.22,WNW,300,14.0,16.0,36,-99.99,,,-99.99,,2013-03-06 19:42:00,
2013-03-06 13:52:00,53.0,27.0,30.22,WNW,300,14.0,16.0,36,-99.99,,,-99.99,,2013-03-06 19:52:00,
2013-03-06 14:00:00,55.0,30.0,30.19,NNW,330,13.0,15.0,37,-99.99,,,-99.99,,2013-03-06 20:00:00,
2013-03-06 14:21:00,55.0,30.0,30.19,NNW,330,13.0,15.0,37,-99.99,,,-99.99,,2013-03-06 20:21:00,
2013-03-06 14:31:00,55.0,30.0,30.19,NNW,330,13.0,15.0,37,-99.99,,,-99.99,,2013-03-06 20:31:00,
2013-03-06 14:41:00,55.0,30.0,30.19,NNW,330,13.0,15.0,37,-99.99,,,-99.99,,2013-03-06 20:41:00,
2013-03-06 14:52:00,55.0,30.0,30.19,NNW,330,13.0,15.0,37,-99.99,,,-99.99,,2013-03-06 20:52:00,
2013-03-06 15:00:00,57.0,27.0,30.18,NW,310,13.0,14.0,32,-99.99,,,-99.99,,2013-03-06 21:00:00,
2013-03-06 15:21:00,57.0,27.0,30.18,NW,310,13.0,14.0,32,-99.99,,,-99.99,,2013-03-06 21:21:00,
2013-03-06 15:31:00,57.0,27.0,30.18,NW,310,13.0,14.0,32,-99.99,,,-99.99,,2013-03-06 21:31:00,
2013-03-06 15:41:00,57.0,27.0,30.18,NW,310,13.0,14.0,32,-99.99,,,-99.99,,2013-03-06 21:41:00,
2013-03-06 15:51:00,57.0,27.0,30.18,NW,310,13.0,14.0,32,-99.99,,,-99.99,,2013-03-06 21:51:00,
2013-03-06 16:00:00,58.0,33.0,30.17,NNW,330,10.0,13.0,38,-99.99,,,-99.99,,2013-03-06 22:00:00,
2013-03-06 16:21:00,58.0,33.0,30.17,NNW,330,10.0,13.0,38,-99.99,,,-99.99,,2013-03-06 22:21:00,
2013-03-06 16:31:00,58.0,33.0,30.17,NNW,330,10.0,13.0,38,-99.99,,,-99.99,,2013-03-06 22:31:00,
2013-03-06 16:41:00,58.0,33.0,30.17,NNW,330,10.0,13.0,38,-99.99,,,-99.99,,2013-03-06 22:41:00,
2013-03-06 16:51:00,58.0,33.0,30.17,NNW,330,10.0,13.0,38,-99.99,,,-99.99,,2013-03-06 22:51:00,
2013-03-06 17:21:00,56.0,39.0,30.18,NNE,20,14.0,15.0,52,-99.99,,,-99.99,,2013-03-06 23:21:00,
2013-03-06 18:00:00,56.0,37.0,30.20,NNW,340,16.0,18.0,48,-99.99,,,-99.99,,2013-03-07 00:00:00,
2013-03-06 18:21:00,56.0,37.0,30.20,NNW,340,16.0,18.0,48,-99.99,,,-99.99,,2013-03-07 00:21:00,
2013-03-06 18:31:00,56.0,37.0,30.20,NNW,340,16.0,18.0,48,-99.99,,,-99.99,,2013-03-07 00:31:00,
2013-03-06 18:41:00,56.0,37.0,30.20,NNW,340,16.0,18.0,48,-99.99,,,-99.99,,2013-03-07 00:41:00,
2013-03-06 18:51:00,56.0,37.0,30.20,NNW,340,16.0,18.0,48,-99.99,,,-99.99,,2013-03-07 00:51:00,
2013-03-06 19:00:00,55.0,34.0,30.23,NNW,330,13.0,15.0,44,-99.99,,,-99.99,,2013-03-07 01:00:00,
2013-03-06 19:21:00,55.0,34.0,30.23,NNW,330,13.0,15.0,44,-99.99,,,-99.99,,2013-03-07 01:21:00,
2013-03-06 19:31:00,55.0,34.0,30.23,NNW,330,13.0,15.0,44,-99.99,,,-99.99,,2013-03-07 01:31:00,
2013-03-06 19:41:00,55.0,34.0,30.23,NNW,330,13.0,15.0,44,-99.99,,,-99.99,,2013-03-07 01:41:00,
2013-03-06 19:51:00,55.0,34.0,30.23,NNW,330,13.0,15.0,44,-99.99,,,-99.99,,2013-03-07 01:51:00,
2013-03-06 21:00:00,54.0,34.0,30.26,North,10,16.0,17.0,46,-99.99,,,-99.99,,2013-03-07 03:00:00,
2013-03-06 21:21:00,54.0,34.0,30.26,North,10,16.0,17.0,46,-99.99,,,-99.99,,2013-03-07 03:21:00,
2013-03-06 21:31:00,54.0,34.0,30.26,North,10,16.0,17.0,46,-99.99,,,-99.99,,2013-03-07 03:31:00,
2013-03-06 21:41:00,54.0,34.0,30.26,North,10,16.0,17.0,46,-99.99,,,-99.99,,2013-03-07 03:41:00,
2013-03-06 21:51:00,54.0,34.0,30.26,North,10,16.0,17.0,46,-99.99,,,-99.99,,2013-03-07 03:51:00,
2013-03-06 22:00:00,50.0,34.0,30.27,NNE,30,18.0,20.0,53,-99.99,,,-99.99,,2013-03-07 04:00:00,
2013-03-06 22:21:00,50.0,34.0,30.27,NNE,30,18.0,20.0,53,-99.99,,,-99.99,,2013-03-07 04:21:00,
2013-03-06 22:31:00,50.0,34.0,30.27,NNE,30,18.0,20.0,53,-99.99,,,-99.99,,2013-03-07 04:31:00,
2013-03-06 22:41:00,50.0,34.0,30.27,NNE,30,18.0,20.0,53,-99.99,,,-99.99,,2013-03-07 04:41:00,
2013-03-06 22:51:00,50.0,34.0,30.27,NNE,30,18.0,20.0,53,-99.99,,,-99.99,,2013-03-07 04:51:00,
2013-03-06 23:00:00,50.0,35.0,30.28,North,10,18.0,20.0,57,-99.99,,,-99.99,,2013-03-07 05:00:00,
2013-03-06 23:22:00,50.0,35.0,30.28,North,10,18.0,20.0,57,-99.99,,,-99.99,,2013-03-07 05:22:00,
2013-03-06 23:31:00,50.0,35.0,30.28,North,10,18.0,20.0,57,-99.99,,,-99.99,,2013-03-07 05:31:00,
2013-03-06 23:41:00,50.0,35.0,30.28,North,10,18.0,20.0,57,-99.99,,,-99.99,,2013-03-07 05:41:00,
2013-03-06 23:51:00,50.0,35.0,30.28,North,10,18.0,20.0,57,-99.99,,,-99.99,,2013-03-07 05:51:00,